GM4SUF Weather Reports


time (UTC)temp
F
wind
direction
speed
knots
gust
knots
rain 1hr
in
rain 24hr
in
rain mn
in
humidity
%
barometer
mb
20260508032202 42 249 3.5 6.1 0.00 0.00 0.00 100 1008.1
20260508031706 43 270 2.6 3.5 0.00 0.00 0.00 100 1008.1
20260508031448 43 257 1.7 3.5 0.00 0.00 0.00 100 1008.1
20260508030704 43 252 0.9 2.6 0.00 0.00 0.00 100 1008.1
20260508030203 43 252 1.7 3.5 0.00 0.00 0.00 100 1008.1
20260508025700 43 252 2.6 6.1 0.00 0.00 0.00 100 1008.1
20260508025154 44 252 3.5 6.1 0.00 0.00 0.00 100 1008.1
20260508024656 44 239 4.3 7.0 0.00 0.00 0.00 100 1008.1
20260508024156 44 232 4.3 7.0 0.00 0.00 0.00 100 1008.2
20260508023654 44 242 3.5 6.1 0.00 0.00 0.00 100 1008.1
20260508023154 44 252 3.5 4.3 0.00 0.00 0.00 100 1008.1
20260508022654 44 256 3.5 6.1 0.00 0.00 0.00 100 1008.1
20260508022215 45 264 2.6 6.1 0.00 0.00 0.00 100 1008.1
20260508022204 44 257 2.6 6.1 0.00 0.00 0.00 100 1008.1
20260508021436 45 264 1.7 6.1 0.00 0.00 0.00 100 1008.0
20260508020921 46 273 1.7 2.6 0.00 0.00 0.00 100 1008.0
20260508020157 46 272 1.7 2.6 0.00 0.00 0.00 100 1008.0
20260508015656 47 273 1.7 2.6 0.00 0.00 0.00 100 1007.9
20260508015432 47 273 0.9 2.6 0.00 0.00 0.00 100 1007.9
20260508014654 48 273 0.0 1.7 0.00 0.00 0.00 100 1007.7
20260508014154 48 273 0.9 3.5 0.00 0.00 0.00 100 1007.8
20260508013656 48 273 0.9 3.5 0.00 0.00 0.00 100 1007.8
20260508013154 49 272 0.0 2.6 0.00 0.00 0.00 100 1007.7
20260508012706 49 273 1.7 5.2 0.00 0.00 0.00 100 1007.6
20260508012655 49 273 0.9 5.2 0.00 0.00 0.00 100 1007.7
20260508011648 49 259 1.7 5.2 0.00 0.00 0.00 100 1007.7
20260508011149 50 258 2.6 6.1 0.00 0.00 0.00 100 1007.7
20260508010649 50 257 3.5 6.1 0.00 0.00 0.00 100 1007.7
20260508010423 50 223 4.3 7.0 0.00 0.00 0.00 100 1007.7
20260508005651 50 247 3.5 7.0 0.00 0.00 0.00 100 1007.7
20260508005149 50 246 3.5 7.0 0.00 0.00 0.00 100 1007.7
20260508004649 50 241 3.5 7.8 0.00 0.00 0.00 100 1007.7
20260508004424 50 245 2.6 7.8 0.00 0.00 0.00 100 1007.7
20260508003917 50 229 2.6 6.1 0.00 0.00 0.00 100 1007.7
20260508003144 50 240 1.7 4.3 0.00 0.00 0.00 100 1007.7
20260508002644 50 240 3.5 7.0 0.00 0.00 0.00 100 1007.8
20260508002149 50 240 3.5 7.0 0.00 0.00 0.00 100 1007.7
20260508001643 50 207 3.5 5.2 0.00 0.00 0.00 100 1007.7
20260508001132 50 176 3.5 6.1 0.00 0.00 0.00 100 1007.7
20260508000633 50 192 3.5 7.0 0.00 0.00 0.00 100 1007.7
20260508000137 50 191 4.3 7.8 0.00 0.00 0.00 100 1007.7
20260507235638 50 237 5.2 9.6 0.00 0.00 0.00 100 1007.6
20260507235413 50 228 5.2 9.6 0.00 0.00 0.00 100 1007.6
20260507234632 50 226 5.2 9.6 0.00 0.00 0.00 100 1007.6
20260507234137 50 227 4.3 9.6 0.00 0.00 0.00 100 1007.6
20260507233630 51 226 4.3 9.6 0.00 0.00 0.00 100 1007.7
20260507233403 51 237 6.1 13.0 0.00 0.00 0.00 100 1007.5
20260507232631 51 241 6.1 13.0 0.00 0.00 0.00 100 1007.4
20260507232130 51 187 6.1 11.3 0.00 0.00 0.00 100 1007.4
20260507231631 51 216 7.0 11.3 0.00 0.00 0.00 100 1007.4
20260507231409 51 207 7.0 11.3 0.00 0.00 0.00 100 1007.4
20260507230632 51 250 7.0 12.2 0.00 0.00 0.00 100 1007.4
20260507230130 51 226 7.0 12.2 0.00 0.00 0.00 100 1007.3
20260507225629 51 230 7.0 12.2 0.00 0.00 0.00 100 1007.3
20260507225128 51 217 7.0 12.2 0.00 0.00 0.00 100 1007.3
20260507224629 51 230 7.0 15.6 0.00 0.00 0.00 100 1007.3
20260507224129 51 211 7.8 15.6 0.00 0.00 0.00 100 1007.2
20260507223858 51 215 7.8 14.8 0.00 0.00 0.00 100 1007.3
20260507223127 51 242 7.8 13.0 0.00 0.00 0.00 100 1007.3
20260507222627 51 222 7.0 13.0 0.00 0.00 0.00 100 1007.2
20260507222127 51 188 7.0 10.4 0.00 0.00 0.00 100 1007.2
20260507221625 51 196 7.0 13.0 0.00 0.00 0.00 100 1007.2
20260507221126 51 226 6.1 13.0 0.00 0.00 0.00 100 1007.2
20260507220625 51 202 5.2 8.7 0.00 0.00 0.00 100 1007.3
20260507220126 51 219 7.0 11.3 0.00 0.00 0.00 100 1007.3
20260507215625 51 215 7.0 12.2 0.00 0.00 0.00 100 1007.3
20260507215403 51 216 6.1 12.2 0.00 0.00 0.00 100 1007.4
20260507214625 51 221 5.2 9.6 0.00 0.00 0.00 100 1007.4
20260507214125 51 203 4.3 8.7 0.00 0.00 0.00 100 1007.4
20260507213625 51 199 4.3 9.6 0.00 0.00 0.00 100 1007.4
20260507213126 51 209 5.2 12.2 0.00 0.00 0.00 100 1007.4
20260507212628 52 195 6.1 12.2 0.00 0.00 0.00 100 1007.3
20260507212127 52 219 6.1 13.0 0.00 0.00 0.00 100 1007.3
20260507211850 52 208 5.2 13.0 0.00 0.00 0.00 100 1007.4
20260507211126 52 202 5.2 10.4 0.00 0.00 0.00 100 1007.3
20260507210619 52 193 5.2 10.4 0.00 0.00 0.00 100 1007.2
20260507210120 52 227 5.2 9.6 0.00 0.00 0.00 100 1007.0
20260507205849 52 214 6.1 13.0 0.00 0.00 0.00 100 1007.1
20260507205119 52 248 6.1 13.0 0.00 0.00 0.00 100 1007.1
20260507204619 52 229 7.0 13.0 0.00 0.00 0.00 100 1007.0
20260507204126 52 194 7.0 15.6 0.00 0.00 0.00 100 1007.0
20260507203621 53 207 7.8 15.6 0.00 0.00 0.00 100 1007.0
20260507203152 53 213 6.1 14.8 0.00 0.00 0.00 100 1006.9
20260507203130 53 227 7.0 14.8 0.00 0.00 0.00 100 1007.0
20260507202853 53 192 5.2 11.3 0.00 0.00 0.00 100 1006.8
20260507201608 53 194 6.1 11.3 0.00 0.00 0.00 100 1006.6
20260507201105 53 217 5.2 10.4 0.00 0.00 0.00 100 1006.6
20260507200607 53 218 5.2 11.3 0.00 0.00 0.00 100 1006.5
20260507200117 53 203 6.1 15.6 0.00 0.00 0.00 100 1006.5
20260507195601 53 167 6.1 15.6 0.00 0.00 0.00 100 1006.5
20260507195059 53 200 5.2 12.2 0.00 0.00 0.00 100 1006.5
20260507194558 54 178 6.1 11.3 0.00 0.00 0.00 100 1006.5
20260507194327 54 186 7.8 16.5 0.00 0.00 0.00 100 1006.5
20260507193557 54 216 7.8 16.5 0.00 0.00 0.00 100 1006.5
20260507193057 54 203 7.8 12.2 0.00 0.00 0.00 100 1006.4
20260507192557 55 210 8.7 20.9 0.00 0.00 0.00 100 1006.4
20260507192056 55 228 9.6 20.9 0.00 0.00 0.00 100 1006.3
20260507191559 55 253 9.6 13.0 0.00 0.00 0.00 100 1006.3
20260507191327 56 233 8.7 15.6 0.00 0.00 0.00 100 1006.3
20260507190554 56 219 7.8 15.6 0.00 0.00 0.00 100 1006.4
20260507190054 55 232 7.0 13.0 0.00 0.00 0.00 100 1006.3
20260507185550 55 217 7.0 14.8 0.00 0.00 0.00 100 1006.4
20260507185042 56 213 7.8 14.8 0.00 0.00 0.00 100 1006.3
20260507184537 55 203 7.8 14.8 0.00 0.00 0.00 100 1006.2
20260507184032 55 245 7.0 14.8 0.00 0.00 0.00 100 1006.2
20260507183533 56 221 7.8 14.8 0.00 0.00 0.00 100 1006.2
20260507183035 56 211 9.6 15.6 0.00 0.00 0.00 100 1006.1
20260507182534 56 236 7.8 15.6 0.00 0.00 0.00 100 1006.2
20260507182034 56 222 6.1 15.6 0.00 0.00 0.00 100 1006.3
20260507181534 56 223 7.8 14.8 0.00 0.00 0.00 100 1006.2
20260507181033 56 209 8.7 14.8 0.00 0.00 0.00 100 1006.3
20260507180534 56 229 8.7 15.6 0.00 0.00 0.00 100 1006.2
20260507180032 56 230 10.4 19.1 0.00 0.00 0.00 100 1006.2
20260507175531 57 220 11.3 19.1 0.00 0.00 0.00 100 1006.2
20260507175032 57 252 10.4 19.1 0.00 0.00 0.00 100 1006.2
20260507174534 57 226 9.6 21.7 0.00 0.00 0.00 100 1006.2
20260507174030 58 232 11.3 21.7 0.00 0.00 0.00 100 1006.2
20260507173533 57 221 13.0 21.7 0.00 0.00 0.00 100 1006.3
20260507173031 57 239 13.0 21.7 0.00 0.00 0.00 100 1006.3
20260507172526 57 243 12.2 20.9 0.00 0.00 0.00 100 1006.2
20260507172022 58 216 10.4 20.9 0.00 0.00 0.00 100 1006.2
20260507171523 58 225 10.4 19.1 0.00 0.00 0.00 100 1006.2
20260507171251 58 256 9.6 16.5 0.00 0.00 0.00 100 1006.2
20260507170521 57 239 10.4 18.2 0.00 0.00 0.00 100 1006.3
20260507170022 57 202 13.0 20.0 0.00 0.00 0.00 100 1006.4
20260507165522 58 190 13.9 20.9 0.00 0.00 0.00 100 1006.4
20260507165021 58 225 13.9 27.8 0.00 0.00 0.00 100 1006.3
20260507164521 58 217 14.8 27.8 0.00 0.00 0.00 100 1006.3
20260507164022 58 213 13.9 23.5 0.00 0.00 0.00 100 1006.4
20260507163521 58 231 13.9 23.5 0.00 0.00 0.00 100 1006.4
20260507163020 58 211 13.0 23.5 0.00 0.00 0.00 100 1006.4
20260507162520 58 218 12.2 20.0 0.00 0.00 0.00 100 1006.3
20260507162034 58 220 12.2 20.9 0.00 0.00 0.00 100 1006.4
20260507162022 58 222 12.2 20.0 0.00 0.00 0.00 100 1006.4
20260507161017 58 238 13.0 22.6 0.00 0.00 0.00 100 1006.4
20260507160744 58 225 13.9 22.6 0.00 0.00 0.00 100 1006.4
20260507160019 58 248 13.9 22.6 0.00 0.00 0.00 100 1006.4
20260507155514 58 249 15.6 22.6 0.00 0.00 0.00 100 1006.4
20260507155245 58 233 16.5 24.3 0.00 0.00 0.00 100 1006.4
20260507154516 58 237 15.6 24.3 0.00 0.00 0.00 100 1006.4
20260507154016 58 221 15.6 25.2 0.00 0.00 0.00 100 1006.2
20260507153514 58 202 14.8 25.2 0.00 0.00 0.00 100 1006.2
20260507153014 59 211 13.9 22.6 0.00 0.00 0.00 100 1006.3
20260507152515 59 193 13.9 20.9 0.00 0.00 0.00 100 1006.2
20260507152021 60 213 13.9 24.3 0.00 0.00 0.00 100 1006.3
20260507152011 60 205 13.9 24.3 0.00 0.00 0.00 100 1006.3
20260507151006 60 173 13.0 22.6 0.00 0.00 0.00 100 1006.3
20260507150508 60 265 11.3 22.6 0.00 0.00 0.00 100 1006.4
20260507150007 59 219 9.6 21.7 0.00 0.00 0.00 100 1006.4
20260507145507 60 178 9.6 21.7 0.00 0.00 0.00 100 1006.3
20260507145254 59 256 13.0 24.3 0.00 0.00 0.00 100 1006.4
20260507145247 60 211 11.3 20.9 0.00 0.00 0.00 100 1006.3
20260507144233 59 226 13.0 24.3 0.00 0.00 0.00 100 1006.4
20260507143505 59 234 11.3 20.0 0.00 0.00 0.00 100 1006.5
20260507143005 60 214 11.3 20.9 0.00 0.00 0.00 100 1006.6
20260507142505 60 190 10.4 20.9 0.00 0.00 0.00 100 1006.6
20260507142007 60 219 8.7 17.4 0.00 0.00 0.00 100 1006.6
20260507141741 60 187 9.6 20.0 0.00 0.00 0.00 100 1006.6
20260507141007 59 195 11.3 21.7 0.00 0.00 0.00 100 1006.8
20260507140504 59 203 10.4 21.7 0.00 0.00 0.00 100 1006.9
20260507140234 59 217 10.4 21.7 0.00 0.00 0.00 100 1007.0
20260507135734 59 175 10.4 21.7 0.00 0.00 0.00 100 1007.1
20260507135003 60 225 9.6 19.1 0.00 0.00 0.00 100 1007.2
20260507134503 60 233 11.3 19.1 0.00 0.00 0.00 100 1007.3
20260507134007 59 160 11.3 21.7 0.00 0.00 0.00 100 1007.2
20260507133503 60 186 11.3 21.7 0.00 0.00 0.00 100 1007.3
20260507133235 59 191 10.4 19.1 0.00 0.00 0.00 100 1007.4
20260507132502 60 183 10.4 19.1 0.00 0.00 0.00 100 1007.3
20260507132003 59 200 10.4 20.9 0.00 0.00 0.00 100 1007.5
20260507131503 59 169 11.3 20.9 0.00 0.00 0.00 100 1007.4
20260507131007 60 173 9.6 20.0 0.00 0.00 0.00 100 1007.5
20260507130519 60 160 9.6 19.1 0.00 0.00 0.00 100 1007.3
20260507130004 59 182 10.4 19.1 0.00 0.00 0.00 100 1007.5
20260507125503 59 198 8.7 18.2 0.00 0.00 0.00 100 1007.5
20260507125004 59 178 7.8 13.0 0.00 0.00 0.00 100 1007.5
20260507124738 57 163 7.8 15.6 0.00 0.00 0.00 100 1007.6
20260507124005 56 177 7.0 15.6 0.00 0.00 0.00 100 1007.7
20260507123503 55 184 7.8 18.2 0.00 0.00 0.00 100 1007.8
20260507123002 55 171 8.7 18.2 0.00 0.00 0.00 100 1007.9
20260507122504 56 180 7.0 13.9 0.00 0.00 0.00 100 1007.8
20260507122232 56 168 7.0 13.0 0.00 0.00 0.00 100 1007.6
20260507121501 57 188 7.8 15.6 0.00 0.00 0.00 100 1007.7
20260507121003 57 174 7.0 15.6 0.00 0.00 0.00 100 1007.7
20260507120503 57 215 7.0 13.0 0.00 0.00 0.00 100 1007.7
20260507120002 57 215 7.8 17.4 0.00 0.00 0.00 100 1007.8
20260507115734 58 187 7.8 17.4 0.00 0.00 0.00 100 1007.8
20260507115002 57 129 7.8 14.8 0.00 0.00 0.00 100 1007.8
20260507114501 56 192 7.8 13.9 0.00 0.00 0.00 100 1007.9
20260507114229 56 200 8.7 17.4 0.00 0.00 0.00 100 1007.9
20260507113503 56 188 9.6 19.1 0.00 0.00 0.00 100 1007.9
20260507113001 56 151 9.6 19.1 0.00 0.00 0.00 100 1007.9
20260507112501 56 194 10.4 20.9 0.00 0.00 0.00 100 1007.9
20260507112001 56 211 9.6 20.9 0.00 0.00 0.00 100 1007.9
20260507111454 55 183 8.7 18.2 0.00 0.00 0.00 100 1007.9
20260507111223 55 222 8.7 17.4 0.00 0.00 0.00 100 1007.9
20260507110444 55 198 8.7 17.4 0.00 0.00 0.00 100 1007.9
20260507105941 55 178 7.8 14.8 0.00 0.00 0.00 100 1007.9
20260507105444 55 173 7.8 14.8 0.00 0.00 0.00 100 1008.0
20260507104944 55 173 7.8 18.2 0.00 0.00 0.00 100 1008.0
20260507104716 55 182 7.8 18.2 0.00 0.00 0.00 100 1008.1
20260507103945 55 160 6.1 14.8 0.00 0.00 0.00 100 1008.1
20260507103445 55 182 7.0 13.0 0.00 0.00 0.00 100 1008.1
20260507102945 55 166 7.0 13.9 0.00 0.00 0.00 100 1008.1
20260507102721 54 193 8.7 17.4 0.00 0.00 0.00 100 1008.1
20260507101944 54 199 8.7 17.4 0.00 0.00 0.00 100 1008.2
20260507101444 54 187 8.7 16.5 0.00 0.00 0.00 100 1008.2
20260507100938 54 184 7.8 15.6 0.00 0.00 0.00 100 1008.2
20260507100438 54 190 7.0 15.6 0.00 0.00 0.00 100 1008.2
20260507095940 54 192 7.8 15.6 0.00 0.00 0.00 100 1008.3
20260507095431 54 175 7.8 13.9 0.00 0.00 0.00 100 1008.2
20260507095203 53 186 7.0 13.9 0.00 0.00 0.00 100 1008.2
20260507094426 53 217 7.8 13.0 0.00 0.00 0.00 100 1008.2
20260507093924 53 215 7.8 13.0 0.00 0.00 0.00 100 1008.3
20260507093425 53 194 7.8 14.8 0.00 0.00 0.00 100 1008.4
20260507093153 53 211 7.8 14.8 0.00 0.00 0.00 100 1008.4
20260507092425 53 179 7.0 14.8 0.00 0.00 0.00 100 1008.4
20260507091925 53 186 5.2 12.2 0.00 0.00 0.00 100 1008.3
20260507091425 53 225 5.2 11.3 0.00 0.00 0.00 100 1008.3
20260507090927 52 192 5.2 11.3 0.00 0.00 0.00 100 1008.3
20260507090656 52 175 5.2 11.3 0.00 0.00 0.00 100 1008.3
20260507085926 52 171 4.3 9.6 0.00 0.00 0.00 100 1008.4
20260507085426 51 184 5.2 9.6 0.00 0.00 0.00 100 1008.4
20260507084930 51 195 5.2 9.6 0.00 0.00 0.00 100 1008.4
20260507084427 51 194 6.1 13.0 0.00 0.00 0.00 100 1008.6
20260507084148 51 173 4.3 13.0 0.00 0.00 0.00 100 1008.7
20260507083657 51 234 2.6 8.7 0.00 0.00 0.00 100 1008.7
20260507082926 51 152 2.6 6.1 0.00 0.00 0.00 100 1008.6
20260507082426 51 126 2.6 5.2 0.00 0.00 0.00 100 1008.6
20260507081923 51 190 1.7 6.1 0.00 0.00 0.00 100 1008.7
20260507081421 51 136 2.6 6.1 0.00 0.00 0.00 100 1008.6
20260507080919 51 136 3.5 8.7 0.00 0.00 0.00 100 1008.7
20260507080419 50 200 2.6 8.7 0.00 0.00 0.00 100 1008.7
20260507075919 50 171 1.7 5.2 0.00 0.00 0.00 100 1008.7
20260507075416 50 168 2.6 7.8 0.00 0.00 0.00 100 1008.8
20260507074911 50 238 2.6 7.8 0.00 0.00 0.00 100 1008.7
20260507074413 50 132 2.6 6.1 0.00 0.00 0.00 100 1008.7
20260507074139 50 129 3.5 8.7 0.00 0.00 0.00 100 1008.7
20260507073410 50 155 4.3 8.7 0.00 0.00 0.00 100 1008.7
20260507072908 49 125 4.3 7.8 0.00 0.00 0.00 100 1008.7
20260507072407 49 148 4.3 7.8 0.00 0.00 0.00 100 1008.7
20260507071906 49 160 5.2 8.7 0.00 0.00 0.00 100 1008.7
20260507071425 49 155 2.6 7.8 0.00 0.00 0.00 100 1008.8
20260507071411 49 173 4.3 8.7 0.00 0.00 0.00 100 1008.7
20260507070407 49 157 1.7 5.2 0.00 0.00 0.00 100 1008.9
20260507065854 49 157 0.9 5.2 0.00 0.00 0.00 100 1008.9
20260507065351 49 214 0.9 4.3 0.00 0.00 0.00 100 1008.9
20260507064844 49 214 1.7 5.2 0.00 0.00 0.00 100 1008.9
20260507064338 49 158 2.6 6.1 0.00 0.00 0.00 100 1009.0
20260507063839 48 136 2.6 6.1 0.00 0.00 0.00 100 1008.9
20260507063339 48 146 1.7 4.3 0.00 0.00 0.00 100 1009.1
20260507062840 48 152 1.7 4.3 0.00 0.00 0.00 100 1009.0
20260507062342 48 143 1.7 5.2 0.00 0.00 0.00 100 1009.1
20260507061842 48 143 2.6 5.2 0.00 0.00 0.00 100 1009.1
20260507061340 48 129 2.6 6.1 0.00 0.00 0.00 100 1009.2
20260507060838 48 145 3.5 6.1 0.00 0.00 0.00 100 1009.3
20260507060336 48 145 3.5 6.1 0.00 0.00 0.00 100 1009.1
20260507055835 48 157 3.5 7.0 0.00 0.00 0.00 100 1009.2
20260507055334 48 165 3.5 7.0 0.00 0.00 0.00 100 1009.1
20260507054834 48 182 3.5 7.0 0.00 0.00 0.00 100 1009.2
20260507054333 48 161 4.3 8.7 0.00 0.00 0.00 100 1009.2
20260507054103 47 178 5.2 8.7 0.00 0.00 0.00 100 1009.1
20260507053334 47 159 5.2 7.8 0.00 0.00 0.00 100 1009.2
20260507052832 47 196 4.3 8.7 0.00 0.00 0.00 100 1009.3
20260507052328 47 177 3.5 8.7 0.00 0.00 0.00 100 1009.3
20260507051820 47 183 3.5 6.1 0.00 0.00 0.00 100 1009.2
20260507051546 47 176 3.5 7.8 0.00 0.00 0.00 100 1009.2
20260507050817 47 167 3.5 7.8 0.00 0.00 0.00 100 1009.1
20260507050319 47 192 3.5 6.1 0.00 0.00 0.00 100 1009.2
20260507045817 46 189 3.5 6.1 0.00 0.00 0.00 100 1009.4
20260507045316 46 177 3.5 6.1 0.00 0.00 0.00 100 1009.5
20260507044818 46 175 2.6 5.2 0.00 0.00 0.00 100 1009.4
20260507044316 46 188 2.6 4.3 0.00 0.00 0.00 100 1009.5
20260507043812 46 206 2.6 4.3 0.00 0.00 0.00 100 1009.6
20260507043314 46 177 0.9 4.3 0.00 0.00 0.00 100 1009.6
20260507042814 46 177 0.0 2.6 0.00 0.00 0.00 100 1009.5
20260507042312 46 177 0.0 1.7 0.00 0.00 0.00 100 1009.5
20260507041810 46 176 0.9 2.6 0.00 0.00 0.00 100 1009.6
20260507041308 46 177 0.9 4.3 0.00 0.00 0.00 100 1009.5
20260507040808 46 177 1.7 4.3 0.00 0.00 0.00 100 1009.5
20260507040308 46 176 2.6 5.2 0.00 0.00 0.00 100 1009.6
20260507035808 46 176 2.6 6.1 0.00 0.00 0.00 100 1009.4
20260507035309 46 200 3.5 6.1 0.00 0.00 0.00 100 1009.5
20260507035037 46 203 3.5 6.1 0.00 0.00 0.00 100 1009.5
20260507034310 46 213 3.5 7.0 0.00 0.00 0.00 100 1009.6
20260507034034 46 207 4.3 7.0 0.00 0.00 0.00 100 1009.7
20260507033306 47 178 4.3 7.0 0.00 0.00 0.00 100 1009.7
20260507032807 46 188 4.3 7.8 0.00 0.00 0.00 100 1009.8